Temp
16 16 16 17 17 17 17 17 17 18 18 18 17 17 17 17 17 17 16 16 16 16 16 17 16 15 14 15 15 15 15 15 15 15 14 14 14 14 13 13 14 14 12
16 16 16 16 17 17 17 16 17 18 18 18 17 16 16 17 17 16 15 16 16 16 16 16 16 14 14 15 14 15 14 14 14 14 14 14 14 14 13 13 14 14 12
16 15 16 16 16 17 16 16 17 17 17 17 17 16 16 16 16 15 15 16 16 16 16 16 16 15 15 15 15 14 14 14 13 13 13 13 14 14 14 13 13 12 12
16 16 17 16 16 16 16 16 16 16 16 17 17 16 16 16 16 16 15 16 16 16 16 16 16 16 15 15 14 14 14 13 13 13 13 13 13 14 14 13 13 13 13
16 16 16 16 16 16 16 16 16 16 16 16 17 17 16 16 16 16 15 15 15 16 16 16 16 16 15 15 15 14 14 13 13 13 13 13 13 13 14 13 13 13 13
17 16 16 16 16 16 16 16 16 16 16 16 16 16 17 17 16 16 15 15 15 15 16 16 16 16 16 15 15 15 14 13 13 13 13 13 13 13 14 14 13 13 13
17 16 16 16 16 16 16 16 16 16 16 16 16 16 16 16 17 16 16 15 15 15 15 16 16 16 16 15 15 15 14 14 13 13 13 13 13 13 14 14 14 14 14
16 17 16 16 17 17 16 16 16 16 16 16 16 16 16 16 16 16 16 15 15 15 15 15 15 16 16 16 15 15 15 14 13 13 13 13 13 13 13 14 14 14 14
16 16 16 17 16 17 17 16 16 17 17 16 16 16 16 16 16 16 16 16 15 15 15 15 15 15 15 16 16 16 15 14 14 13 13 13 13 13 13 13 14 14 14
16 16 16 16 16 16 16 16 16 16 16 16 16 16 16 16 15 15 15 15 15 15 15 15 15 15 15 15 15 16 16 15 15 14 13 13 13 13 13 13 13 14 14
15 15 16 16 15 15 16 16 16 16 16 16 16 15 15 15 15 15 15 15 15 14 14 14 14 15 14 14 15 15 15 15 15 14 14 13 13 13 13 14 13 14 14
15 15 15 15 15 16 16 16 16 16 16 15 15 15 15 15 15 14 14 14 14 14 14 15 15 14 14 15 15 14 15 15 15 15 14 13 13 13 13 14 14 14 14
15 16 16 16 16 16 16 16 16 16 16 16 15 15 16 15 15 14 14 14 14 14 14 14 14 14 14 14 14 14 14 14 14 14 14 13 13 13 13 14 14 14 14
15 16 16 16 16 16 16 16 16 16 15 15 15 15 15 15 15 15 15 14 14 13 14 14 14 14 14 14 14 13 13 14 14 14 14 13 13 13 13 13 14 14 14
15 15 15 15 15 15 15 15 15 15 15 15 15 14 14 14 14 14 14 13 13 14 13 13 13 13 13 14 14 14 14 14 14 14 14 14 13 13 13 13 14 14 14
15 15 15 15 15 15 15 15 15 14 14 14 14 14 13 13 13 12 13 13 13 13 12 13 13 13 13 13 13 13 13 13 13 13 14 14 14 14 13 13 13 14 14
14 14 14 14 14 14 14 14 14 14 13 13 13 13 13 12 12 11 11 11 12 12 12 12 12 12 13 12 12 13 13 13 13 14 13 13 14 13 14 13 13 13 14
14 14 14 13 13 13 13 13 13 13 12 12 12 12 11 11 10 10 10 10 10 10 10 11 11 12 12 12 13 13 13 13 13 13 14 13 13 13 13 14 13 13 14
14 13 13 12 12 12 12 12 12 12 11 11 11 10 10 10 10 9 9 9 9 9 9 9 9 10 10 11 11 12 12 13 13 13 12 13 13 13 13 13 13 14 14
13 12 12 12 11 11 11 11 11 11 11 10 10 9 9 9 9 8 9 9 9 9 9 8 8 9 9 9 9 10 11 11 12 12 13 13 13 13 13 13 13 13 14
12 12 11 11 11 11 11 11 11 11 11 10 10 9 9 8 8 9 9 8 8 8 7 7 7 7 8 8 8 9 9 10 11 11 12 13 14 13 13 13 13 13 12
12 11 10 10 10 10 10 10 10 10 9 8 7 6 6 6 7 7 7 7 7 7 6 6 6 6 7 8 8 8 9 9 10 11 12 12 13 13 13 13 13 13 13
11 10 10 10 10 10 10 9 9 8 8 7 8 7 6 6 6 7 6 6 6 5 5 6 6 5 6 6 7 7 8 9 9 10 10 11 11 12 12 12 12 12 12
11 10 10 10 10 9 9 9 7 8 8 7 7 6 7 6 6 6 6 5 5 5 5 5 5 5 5 6 6 7 7 7 8 8 10 11 10 11 11 11 11 12 12
10 10 10 10 10 10 9 8 7 8 7 6 6 6 7 6 6 5 5 5 5 5 5 5 5 5 5 5 5 6 6 7 7 8 8 9 10 10 10 11 11 11 12
10 10 10 10 10 10 8 7 7 7 7 7 5 5 4 5 5 5 6 5 5 5 5 5 5 5 5 5 5 5 5 5 6 7 7 8 8 9 9 10 10 11 11
Height
1564 1565 1565 1565 1565 1564 1564 1563 1562 1561 1561 1561 1561 1561 1561 1561 1561 1561 1561 1561 1561 1560 1559 1558 1557 1557 1556 1556 1556 1556 1556 1555 1554 1554 1554 1554 1554 1553 1553 1552 1551 1550 1550
1564 1565 1566 1566 1565 1565 1564 1564 1563 1562 1562 1562 1562 1562 1562 1562 1562 1562 1562 1562 1561 1560 1559 1558 1557 1557 1557 1557 1556 1557 1557 1556 1555 1555 1555 1555 1555 1555 1554 1553 1552 1551 1550
1564 1565 1566 1566 1566 1566 1565 1564 1564 1563 1563 1563 1563 1563 1563 1563 1563 1563 1562 1562 1562 1561 1560 1559 1558 1557 1557 1556 1556 1557 1557 1557 1557 1556 1556 1556 1557 1556 1555 1554 1554 1553 1552
1564 1564 1565 1566 1566 1566 1566 1565 1565 1564 1564 1564 1564 1564 1563 1563 1563 1563 1562 1562 1562 1561 1560 1559 1558 1558 1557 1557 1556 1557 1557 1558 1558 1558 1557 1556 1557 1557 1557 1556 1555 1554 1554
1563 1564 1564 1565 1566 1566 1566 1566 1565 1565 1565 1564 1564 1564 1564 1563 1563 1563 1562 1562 1562 1561 1561 1560 1559 1558 1557 1557 1556 1557 1557 1558 1558 1559 1558 1558 1557 1557 1557 1557 1556 1555 1555
1563 1564 1564 1565 1565 1565 1565 1565 1565 1565 1565 1565 1564 1564 1563 1563 1563 1562 1562 1562 1562 1561 1561 1560 1559 1558 1557 1557 1556 1556 1557 1557 1558 1559 1559 1559 1558 1558 1557 1556 1556 1556 1556
1563 1564 1564 1565 1566 1566 1566 1566 1566 1566 1565 1565 1564 1564 1563 1563 1562 1562 1561 1561 1561 1561 1561 1560 1559 1558 1557 1556 1556 1555 1556 1556 1557 1557 1558 1558 1558 1557 1556 1556 1555 1555 1555
1564 1564 1565 1565 1566 1566 1566 1565 1565 1565 1565 1565 1564 1564 1563 1562 1562 1561 1561 1561 1560 1560 1560 1559 1558 1557 1556 1556 1555 1555 1555 1555 1555 1556 1556 1557 1557 1557 1556 1555 1555 1554 1554
1563 1564 1564 1565 1566 1566 1565 1565 1565 1565 1565 1564 1564 1563 1562 1561 1561 1560 1560 1559 1559 1559 1558 1558 1557 1557 1556 1555 1555 1554 1554 1554 1554 1554 1554 1554 1555 1555 1555 1554 1554 1554 1553
1563 1564 1564 1565 1565 1565 1565 1565 1565 1564 1564 1563 1562 1562 1561 1560 1559 1558 1558 1557 1557 1557 1556 1556 1556 1555 1555 1554 1553 1553 1552 1552 1552 1552 1552 1552 1552 1552 1552 1552 1552 1552 1552
1562 1563 1563 1564 1564 1564 1563 1563 1563 1562 1562 1561 1560 1560 1559 1558 1557 1556 1556 1555 1555 1555 1554 1554 1553 1553 1553 1552 1551 1551 1550 1550 1550 1549 1549 1550 1550 1551 1550 1550 1550 1550 1550
1561 1562 1562 1563 1562 1562 1561 1561 1560 1559 1559 1558 1557 1556 1555 1555 1554 1554 1553 1552 1552 1552 1551 1551 1550 1550 1549 1549 1549 1548 1548 1547 1547 1547 1546 1546 1547 1547 1547 1547 1548 1548 1547
1560 1560 1560 1560 1560 1559 1559 1558 1558 1557 1556 1555 1554 1553 1552 1552 1551 1551 1550 1550 1549 1549 1548 1547 1547 1546 1545 1545 1545 1544 1544 1544 1544 1543 1543 1543 1543 1544 1544 1544 1544 1545 1545
1558 1558 1558 1557 1557 1556 1556 1555 1554 1554 1552 1552 1551 1550 1549 1548 1548 1547 1546 1546 1545 1545 1544 1543 1542 1542 1541 1541 1541 1540 1540 1540 1539 1540 1540 1540 1540 1541 1541 1541 1541 1541 1541
1556 1555 1555 1554 1554 1553 1552 1551 1551 1550 1549 1547 1547 1546 1545 1544 1542 1542 1541 1541 1540 1540 1539 1538 1537 1537 1536 1536 1536 1535 1535 1535 1535 1536 1536 1536 1537 1537 1537 1537 1537 1537 1537
1553 1553 1552 1551 1550 1549 1548 1547 1547 1546 1545 1543 1542 1541 1540 1539 1537 1536 1536 1535 1535 1535 1534 1533 1532 1531 1531 1530 1529 1530 1530 1530 1529 1530 1530 1531 1532 1532 1532 1532 1532 1532 1533
1550 1550 1549 1548 1547 1546 1545 1544 1543 1542 1540 1539 1537 1536 1535 1534 1532 1531 1529 1529 1528 1528 1528 1527 1526 1525 1524 1523 1523 1523 1523 1524 1524 1524 1525 1525 1524 1525 1526 1527 1528 1528 1528
1547 1546 1546 1545 1544 1543 1542 1540 1539 1537 1536 1534 1532 1531 1529 1527 1526 1525 1524 1523 1522 1520 1520 1520 1519 1518 1517 1517 1516 1516 1516 1516 1517 1517 1516 1517 1518 1519 1520 1521 1522 1523 1523
1544 1543 1542 1541 1540 1539 1538 1537 1535 1533 1531 1529 1527 1525 1523 1522 1521 1520 1518 1517 1516 1515 1514 1513 1512 1512 1511 1510 1509 1508 1508 1508 1508 1509 1508 1510 1511 1511 1512 1514 1516 1517 1518
1541 1540 1539 1538 1537 1536 1534 1533 1531 1530 1528 1525 1523 1521 1519 1517 1515 1513 1512 1512 1511 1509 1508 1507 1505 1505 1505 1504 1502 1501 1500 1499 1500 1500 1501 1502 1504 1504 1505 1505 1508 1508 1509
1538 1537 1536 1535 1534 1533 1531 1528 1527 1525 1522 1520 1518 1515 1512 1511 1509 1508 1508 1506 1505 1503 1501 1500 1499 1499 1499 1499 1497 1495 1494 1494 1493 1493 1493 1494 1495 1497 1498 1499 1499 1501 1501
1536 1535 1534 1533 1531 1529 1527 1525 1522 1519 1516 1513 1511 1508 1507 1505 1505 1504 1504 1503 1501 1498 1497 1496 1495 1494 1494 1495 1494 1491 1487 1486 1487 1487 1486 1487 1488 1488 1489 1491 1493 1493 1495
1534 1533 1532 1530 1528 1526 1523 1521 1518 1515 1512 1509 1507 1503 1502 1501 1502 1502 1501 1500 1499 1497 1495 1494 1492 1491 1489 1490 1491 1491 1486 1483 1482 1481 1480 1480 1481 1483 1484 1484 1484 1486 1489
1531 1530 1529 1527 1525 1523 1520 1516 1513 1510 1507 1505 1503 1501 1500 1500 1500 1499 1498 1498 1497 1495 1493 1491 1490 1489 1487 1485 1485 1485 1485 1483 1481 1478 1476 1476 1477 1478 1479 1480 1480 1482 1484
1529 1528 1526 1524 1522 1519 1516 1513 1510 1507 1505 1503 1502 1500 1499 1500 1499 1498 1497 1496 1494 1493 1492 1489 1487 1485 1484 1482 1481 1479 1479 1478 1478 1478 1475 1472 1473 1474 1476 1476 1477 1478 1480
1526 1525 1523 1521 1519 1516 1513 1510 1508 1505 1503 1502 1501 1500 1498 1497 1497 1496 1496 1494 1493 1491 1489 1487 1484 1481 1479 1477 1476 1475 1474 1473 1473 1474 1474 1473 1471 1470 1472 1472 1474 1474 1474
Wind_Speed
6 1 1 3 5 8 9 10 10 9 8 8 8 8 7 6 5 5 7 6 6 7 9 9 7 6 3 4 4 4 5 7 8 10 9 10 13 11 8 7 6 9 11
8 2 1 2 3 6 8 9 10 10 9 9 8 8 8 7 6 6 5 5 6 8 9 9 7 5 3 3 2 1 2 4 8 11 11 6 6 8 6 5 6 10 11
8 4 1 2 1 4 6 6 9 10 9 8 7 7 7 7 5 4 1 4 5 9 9 8 7 5 3 4 3 2 4 8 11 10 8 11 1 4 7 7 7 9 11
8 4 4 1 1 2 4 5 5 7 9 7 5 5 5 4 3 2 1 2 4 8 8 8 7 6 4 4 4 4 7 10 10 6 2 6 5 1 5 7 5 5 7
7 5 2 3 3 2 2 3 4 5 7 7 6 4 4 5 4 3 3 3 3 6 7 7 6 5 4 4 3 4 9 10 8 6 5 3 4 5 5 6 3 4 5
7 4 4 5 4 3 1 0 2 3 4 5 6 5 5 5 5 5 5 5 4 6 7 7 6 5 4 4 3 2 6 8 8 8 3 4 5 6 2 6 5 2 1
6 4 3 4 2 1 2 2 2 3 3 3 4 6 7 7 6 6 4 3 5 7 8 8 8 6 4 3 2 1 5 10 9 5 4 4 6 8 4 3 4 4 4
7 4 4 2 1 1 3 3 3 4 5 6 7 8 8 8 8 7 7 7 9 10 10 10 9 8 7 5 4 2 4 10 9 8 6 5 7 8 6 3 1 3 2
6 5 4 2 2 2 3 4 5 6 7 8 9 9 9 10 11 10 10 11 12 13 12 12 12 11 9 8 7 6 5 9 11 10 9 10 10 11 9 7 5 4 4
6 6 5 5 5 5 5 6 8 9 10 11 11 11 12 13 13 13 13 13 14 15 15 15 14 14 13 11 10 10 9 9 12 13 13 12 12 11 11 10 9 7 7
7 5 4 4 5 5 7 8 8 11 12 12 12 13 14 14 15 14 15 14 15 17 17 16 17 17 17 16 14 13 13 12 11 13 13 12 12 14 14 14 12 11 10
6 6 6 6 7 8 10 11 12 13 13 13 14 14 15 16 16 15 16 18 18 19 21 21 21 21 21 20 18 17 17 14 14 14 14 13 12 14 14 16 17 14 13
6 6 7 8 10 11 12 13 14 15 16 15 15 16 17 17 17 18 17 18 19 20 23 23 22 23 23 23 20 20 19 16 13 15 17 15 15 17 15 16 18 16 16
8 10 11 12 12 14 14 15 16 17 18 18 19 19 19 20 20 20 22 20 21 21 23 24 25 25 24 23 20 20 18 18 14 15 16 16 20 19 19 18 19 18 17
10 12 12 13 14 15 15 16 16 17 17 18 19 20 21 21 22 21 21 22 23 23 22 23 25 25 27 26 26 24 24 22 21 21 20 19 22 23 21 20 20 21 20
12 13 13 14 16 16 16 17 17 17 18 19 19 20 20 21 22 23 25 23 24 26 25 26 27 25 27 29 29 30 29 29 27 26 24 26 24 25 25 23 21 22 22
14 14 15 15 15 15 16 16 17 18 18 19 20 20 21 21 21 22 24 25 26 26 26 29 30 29 30 28 31 31 31 32 32 30 31 31 28 27 26 26 25 22 23
15 15 15 15 15 16 16 17 18 18 18 19 19 19 19 20 22 23 24 25 26 27 27 27 27 28 32 33 34 33 34 31 33 32 32 32 31 30 29 27 27 26 24
14 13 13 15 15 16 16 17 18 19 19 19 18 19 19 20 20 22 25 27 28 29 30 29 28 28 29 31 33 35 35 35 35 33 35 34 34 36 32 31 30 27 25
13 13 13 14 15 16 17 17 18 18 19 20 21 21 22 22 23 25 24 25 27 31 33 32 32 29 28 29 28 30 33 34 35 34 36 33 34 34 35 33 35 33 30
12 13 13 15 14 16 18 20 21 22 22 22 22 22 22 21 20 20 19 22 25 26 26 26 29 26 24 24 28 31 30 31 33 33 34 35 37 31 32 37 37 34 36
12 13 14 14 15 17 19 21 22 24 24 24 24 24 22 20 18 18 18 16 16 16 17 18 22 26 27 22 23 24 31 32 28 29 29 30 31 25 29 31 34 33 36
15 15 13 15 17 18 20 21 22 22 21 20 17 14 10 10 10 9 10 14 14 16 16 17 17 18 24 24 23 22 20 16 14 11 10 18 23 25 28 30 30 29 32
16 16 15 16 16 18 20 21 23 21 17 15 13 10 8 6 5 7 9 11 14 17 19 21 20 19 19 24 26 25 28 28 26 27 31 23 12 13 11 16 12 9 9
16 15 14 15 17 18 20 21 20 15 13 11 11 12 10 6 5 7 10 13 16 19 20 20 21 22 22 24 24 25 28 25 25 26 26 33 30 28 27 23 17 15 16
12 14 16 17 17 19 19 17 14 13 12 11 11 9 11 11 9 8 11 12 16 19 21 23 21 21 20 23 25 25 26 27 25 22 22 23 22 20 16 13 14 17 18
Wind_Direction
122 8 36 48 53 55 64 57 52 53 62 70 71 64 61 68 80 83 88 76 52 34 21 28 47 96 63 96 128 108 67 46 64 75 99 95 94 93 89 69 30 73 92
139 142 350 66 49 51 58 64 63 61 64 65 67 64 57 62 80 85 60 53 48 29 22 28 42 67 66 72 101 118 79 63 86 83 91 86 98 94 82 63 67 71 80
153 133 75 108 78 52 52 65 63 67 70 69 68 66 56 57 71 49 63 28 30 21 21 23 34 49 44 54 68 98 99 104 90 64 56 59 48 111 66 66 67 80 87
164 150 151 198 147 91 67 64 56 58 64 63 60 49 37 28 33 27 343 330 4 8 10 18 23 29 33 37 60 106 120 121 97 75 16 16 35 156 114 96 42 68 82
156 188 167 170 166 154 84 61 57 51 44 47 40 27 22 21 6 330 298 274 313 350 356 5 15 19 21 23 45 113 136 141 121 114 85 26 336 18 188 140 116 57 58
167 193 189 164 161 164 158 72 46 37 33 32 28 15 357 354 355 343 297 273 274 328 339 342 352 357 359 3 26 123 156 150 143 118 151 264 281 324 296 194 208 259 21
164 131 148 150 132 42 337 341 322 341 353 338 342 350 351 340 333 334 328 268 271 310 317 322 328 332 327 325 344 188 175 170 163 162 200 250 279 307 281 220 238 238 217
171 153 144 128 186 308 314 335 333 330 325 321 324 326 327 323 323 316 307 286 286 296 303 304 307 311 313 303 290 265 211 190 189 177 192 261 279 281 290 284 279 276 253
162 159 153 190 256 287 294 300 306 305 313 321 322 318 312 309 308 308 302 292 287 288 293 295 295 296 297 294 283 271 243 215 206 198 199 214 238 256 265 267 272 264 257
173 184 193 229 250 251 257 288 292 300 296 299 300 301 299 301 302 298 293 294 291 285 287 289 288 287 286 285 282 272 261 245 228 232 228 227 238 237 254 250 263 261 254
178 188 200 219 245 263 266 271 279 278 285 292 295 297 290 293 296 298 295 294 297 297 292 289 288 287 283 279 277 276 267 258 249 239 235 236 249 247 248 255 257 256 251
211 218 235 246 258 265 274 277 278 278 281 283 283 284 288 288 289 289 289 288 284 286 290 291 291 285 280 280 278 274 272 264 258 251 235 239 258 262 256 262 254 258 249
232 247 256 263 268 273 276 277 278 282 284 283 283 284 281 280 282 279 276 279 279 280 284 288 289 288 283 279 277 275 273 258 266 258 242 241 256 267 262 264 257 256 250
253 267 273 277 280 282 284 285 287 286 286 287 286 285 285 287 285 279 278 272 273 278 281 281 281 281 279 277 272 273 276 262 264 270 248 247 253 265 267 266 259 259 251
261 270 278 284 288 290 291 291 289 288 288 285 285 286 286 285 283 280 275 275 276 272 272 273 278 281 279 274 271 266 264 265 265 262 267 258 251 258 262 266 264 259 258
273 282 288 293 294 296 295 297 298 296 293 290 288 284 281 282 282 283 284 279 271 268 273 275 275 277 274 275 273 268 265 257 259 255 254 259 259 259 259 261 264 259 257
278 285 291 295 300 301 303 305 304 302 298 295 291 288 285 282 277 276 278 281 283 279 273 270 270 274 275 274 270 269 271 265 258 255 249 250 256 259 261 261 261 261 255
283 288 295 300 301 303 305 305 305 304 303 301 298 294 289 282 277 275 275 276 277 278 281 280 276 274 272 275 275 274 270 271 266 259 256 254 249 251 256 258 261 262 261
290 292 296 298 302 305 309 310 310 310 310 308 305 299 294 290 286 281 277 276 277 278 279 278 277 277 278 277 278 278 276 274 269 267 265 259 255 256 250 252 259 260 263
288 291 296 299 307 311 313 311 308 308 304 301 297 294 290 286 283 279 280 281 282 280 278 276 276 272 278 284 284 280 279 277 275 273 268 267 262 258 260 251 251 251 262
292 297 300 305 308 310 309 309 309 310 308 305 300 294 289 283 280 287 298 301 298 292 290 287 275 274 272 276 283 280 277 276 277 280 277 270 267 260 258 259 258 254 259
301 304 302 304 307 310 310 312 313 313 312 311 308 301 293 286 285 296 306 314 322 325 324 316 290 278 274 274 289 293 290 291 285 282 278 275 268 270 263 259 259 263 263
305 303 302 307 311 313 313 313 313 310 308 307 314 322 310 296 288 294 308 331 337 326 326 324 319 302 286 280 273 285 296 278 294 292 288 286 265 263 265 261 257 253 256
299 299 304 306 310 313 314 317 317 317 324 323 329 349 3 352 332 329 337 343 340 332 326 322 314 305 298 290 284 275 270 278 286 294 275 274 282 296 290 278 274 269 272
297 295 301 309 314 315 319 319 318 326 331 339 338 350 353 14 15 12 350 343 343 334 323 321 316 305 292 289 289 289 280 275 275 275 285 282 281 285 295 290 288 279 280
292 301 311 314 314 316 320 324 326 327 327 337 349 352 1 360 348 344 336 349 332 326 321 317 316 315 306 294 290 288 283 282 273 276 282 283 291 297 296 306 292 292 285